World > North America > United States > Texas > Jersey Village

Hourly Jersey Village, TX Regional Weather

Feedback E-mail the Weather

Quick WX

Jersey Village, TX Weather Maps

°F °C°F °C
Jersey Village Weather Map
UTC Time: 8/8/2022, 16:36
Your Time:

Jersey Village, TX Regional Weather

Expires:202208081700;;683641
ASUS44 KSJT 081615
RWRSJT
WEST CENTRAL TEXAS REGIONAL WEATHER ROUNDUP
NATIONAL WEATHER SERVICE SAN ANGELO TX
1100 AM CDT MON AUG 08 2022

NOTE: "FAIR" INDICATES FEW OR NO CLOUDS BELOW 12,000 FEET WITH NO
SIGNIFICANT WEATHER AND/OR OBSTRUCTIONS TO VISIBILITY.


TXZ163-177-195>197-199-213-226-237-081700-
SOUTHEAST TEXAS
  
CITY           SKY/WX    TMP DP  RH WIND       PRES   REMARKS
COLLEGE STN    SUNNY     91  71  51 MISG      30.09F                  
CALDWELL       MOSUNNY   89  71  54 S8        30.10F                  
CROCKETT       PTSUNNY   90  73  58 VRB6G12   30.11S                  
BRENHAM        MOSUNNY   88  71  57 CALM      30.10F                  
HUNTSVILLE     MOSUNNY   91  72  53 VRB5      30.10F                  
CONROE         SUNNY     88  74  63 CALM      30.10F                  
HOUSTON BUSH   MOSUNNY   90  74  59 S6        30.09F                  
HOUSTON HOBBY  MOSUNNY   89  71  55 CALM      30.08F                  
PERLAND        SUNNY     89  71  55 VRB3      30.10S                  
WHARTON        SUNNY     89  67  48 NE3       30.09S                  
$$


SKY/WX - Weather  TMP - Temperature  DP - Dew Point  RH - Humidity
WIND - Wind Direction/Speed PRES - Barometric Pressure VSB - Visibility
WCI - Wind Chill Index E13G22 Wind - East Wind 13 mph/Gusts of 22 mph

Trending Headlines

Jersey Village Radar Loop



Jersey Village Quick Facts


National Two Day Weather Forecast


E-mail the Jersey Village Weather Forecast

Voice your opinion or tell us about page issues...